Regional Weather Roundup
Issued by NWS

Home | Current Version | Previous Version | Text Only | Print | Product List | Glossary Off
Versions: 1 2 3 4 5 6 7 8 9 10 11 12 13 14 15 16 17 18 19 20 21 22 23 24 25 26 27 28 29 30 31 32 33 34 35 36 37 38 39 40 41 42 43 44 45 46 47 48 49 50

000
ASUS43 KOAX 301402
RWRNE

WEATHER ROUNDUP FOR NEBRASKA
NATIONAL WEATHER SERVICE OMAHA NE
900 AM CDT THU MAR 30 2017

NOTES: SATELLITE DATA IS BEING USED TO AUGMENT CLOUD COVER ABOVE
       12000 FEET.
       "FAIR" INDICATES FEW OR NO CLOUDS BELOW 12,000 FEET WITH NO
       SIGNIFICANT WEATHER AND/OR OBSTRUCTIONS TO VISIBILITY.

  * THESE STATIONS DO NOT REPORT WEATHER SUCH AS RAIN...SNOW OR FOG.

NEZ001>004-019>022-054>056-301500-
NEBRASKA PANHANDLE

CITY           SKY/WX    TMP DP  RH WIND       PRES   REMARKS
SCOTTSBLUFF    CLOUDY    35  32  88 CALM      29.78F
ALLIANCE       CLOUDY    31  31 100 S5        29.78S WCI  26
CHADRON        CLOUDY    33  31  92 CALM      29.78S
KIMBALL        CLOUDY    38  37  93 W5        29.79S WCI  35
SIDNEY         CLOUDY    34  32  92 W6        29.80S WCI  29
$$

NEZ057>060-069>072-079>082-301500-
SOUTHWEST NEBRASKA

CITY           SKY/WX    TMP DP  RH WIND       PRES   REMARKS
NORTH PLATTE   CLOUDY    38  33  82 N10       29.82S WCI  31
IMPERIAL       CLOUDY    37  35  92 N7        29.83R WCI  32
LEXINGTON      CLOUDY    37  34  90 N14       29.83S WCI  28
MCCOOK         CLOUDY    38  35  89 N14       29.83R WCI  30
OGALLALA       CLOUDY    38  37  96 NE3       29.83S
$$

NEZ005>010-023>029-035>040-094-301500-
NORTH CENTRAL NEBRASKA

CITY           SKY/WX    TMP DP  RH WIND       PRES   REMARKS
VALENTINE      CLOUDY    35  33  92 CALM      29.84F
AINSWORTH      CLOUDY    35  35  99 NE9       29.84S WCI  28
BROKEN BOW     CLOUDY    36  32  85 N8        29.82S WCI  30
O`NEILL        CLOUDY    38  37  99 NE8       29.83S WCI  32
ORD            CLOUDY    38  34  85 N14       29.81R WCI  30
THEDFORD       CLOUDY    35  34  98 NE8       29.83F FOG     WCI  28
$$

NEZ041-046>049-061>064-073>077-083>087-301500-
SOUTH CENTRAL NEBRASKA

CITY           SKY/WX    TMP DP  RH WIND       PRES   REMARKS
GRAND ISLAND   CLOUDY    37  37 100 N20       29.78R WCI  27
AURORA         CLOUDY    38  38 100 N18G25    29.76S WCI  28
HASTINGS       CLOUDY    38  35  89 N24       29.77S WCI  27
HEBRON         CLOUDY    39  37  91 N15G28    29.73S WCI  31
HOLDREGE       CLOUDY    37  34  90 N18       29.80R WCI  27
KEARNEY *      CLOUDY    37  34  87 N18       29.79S WCI  27
YORK           CLOUDY    37  37 100 N21       29.75S WCI  27
$$

NEZ011>018-030>034-042>045-301500-
NORTHEAST NEBRASKA

CITY           SKY/WX    TMP DP  RH WIND       PRES   REMARKS
NORFOLK        CLOUDY    38  36  92 NE12      29.79S WCI  30
ALBION         CLOUDY    39  36  87 N15G22    29.79F WCI  31
BLAIR          CLOUDY    40  39  96 N15G24    29.71S WCI  32
FREMONT        CLOUDY    40  39  99 N12G20    29.75S WCI  32
TEKAMAH        CLOUDY    40  38  93 N16       29.76S WCI  31
WAYNE          CLOUDY    38  38  98 NE16G23   29.80S WCI  29
$$

NEZ050>053-065>068-078-088>093-301500-
SOUTHEAST NEBRASKA

CITY           SKY/WX    TMP DP  RH WIND       PRES   REMARKS
LINCOLN        CLOUDY    40  39  97 N20       29.73S WCI  30
OMAHA EPPLEY   CLOUDY    42  37  82 N16       29.72S
BEATRICE       CLOUDY    41  40  99 N18G24    29.68R
FALLS CITY     HVY RAIN  43  42  97 N12       29.62S FOG
NEBRASKA CITY  LGT RAIN  41  41 100 N20       29.66F
PLATTSMOUTH    CLOUDY    41  38  91 N9G20     29.69S FOG
$$

NEZ044-045-051>053-067-301500-
OMAHA AREA

CITY           SKY/WX    TMP DP  RH WIND       PRES   REMARKS
OMAHA EPPLEY   CLOUDY    42  37  82 N16       29.72S
BLAIR          CLOUDY    40  39  96 N15G24    29.71S WCI  32
FREMONT        CLOUDY    40  39  99 N12G20    29.75S WCI  32
MILLARD        CLOUDY    43  41  91 NE6       29.72S
OFFUTT AFB     LGT RAIN  41  39  93 N10G18    29.70S FOG
PLATTSMOUTH    CLOUDY    41  38  91 N9G20     29.69S FOG
WAHOO          CLOUDY    40  38  95 N17G24    29.74R WCI  31
$$




USA.gov is the U.S. government's official web portal to all federal, state and local government web resources and services.